HISPASAT 36W-1

Last updated on Sun Dec 14 2025 00:02:52 GMT+0000 (Coordinated Universal Time)

1 41942U 17006A 25347.19660828 -.00000231 00000+0 00000+0 0 9990 2 41942 0.0148 164.0917 0000932 92.8800 219.9270 1.00273888 32387
UTC large
Height (km)
Speed (km/s)
/
Latitude / Longitude
Inclination (degrees)
Orbital Period (minutes)
Azimuth
Elevation
Range (km)
Doppler Factor

Next 0 passes for location: London (51.5072 / 0.1276)

Sorry there are no passes over London.